Time,TemperatureF,DewpointF,PressureIn,WindDirection,WindDirectionDegrees,WindSpeedMPH,WindSpeedGustMPH,Humidity,HourlyPrecipIn,Conditions,Clouds,dailyrainin,SoftwareType,DateUTC
2013-06-01 00:11:00,69.8,68.0,29.68,SSW,207,7.0,11.0,93,0.00,,,0.13,weatherlink.com 1.10,2013-06-01 05:11:00,
2013-06-01 00:26:00,69.7,67.0,29.69,SW,224,5.0,9.0,92,0.00,,,0.13,weatherlink.com 1.10,2013-06-01 05:26:00,
2013-06-01 00:41:00,69.3,67.0,29.69,WSW,251,2.0,8.0,92,0.00,,,0.13,weatherlink.com 1.10,2013-06-01 05:41:00,
2013-06-01 00:56:00,69.1,66.0,29.70,SW,230,8.0,11.0,91,0.00,,,0.13,weatherlink.com 1.10,2013-06-01 05:56:00,
2013-06-01 01:11:00,68.6,66.0,29.70,West,274,5.0,10.0,90,0.00,,,0.13,weatherlink.com 1.10,2013-06-01 06:11:00,
2013-06-01 01:26:00,68.1,65.0,29.69,SW,236,3.0,10.0,89,0.00,,,0.13,weatherlink.com 1.10,2013-06-01 06:26:00,
2013-06-01 01:41:00,67.6,64.0,29.68,West,264,4.0,12.0,88,0.00,,,0.13,weatherlink.com 1.10,2013-06-01 06:41:00,
2013-06-01 01:56:00,67.0,64.0,29.68,SW,221,5.0,12.0,89,0.00,,,0.00,weatherlink.com 1.10,2013-06-01 06:56:00,
2013-06-01 02:11:00,66.7,63.0,29.67,SW,229,4.0,12.0,89,0.00,,,0.00,weatherlink.com 1.10,2013-06-01 07:11:00,
2013-06-01 02:26:00,66.5,64.0,29.66,West,266,4.0,13.0,90,0.00,,,0.00,weatherlink.com 1.10,2013-06-01 07:26:00,
2013-06-01 02:41:00,66.3,63.0,29.68,SW,235,3.0,11.0,90,0.00,,,0.00,weatherlink.com 1.10,2013-06-01 07:41:00,
2013-06-01 02:57:00,66.1,63.0,29.68,West,265,9.0,11.0,90,0.00,,,0.00,weatherlink.com 1.10,2013-06-01 07:57:00,
2013-06-01 03:12:00,66.1,63.0,29.67,West,270,6.0,12.0,90,0.00,,,0.00,weatherlink.com 1.10,2013-06-01 08:12:00,
2013-06-01 03:27:00,66.2,63.0,29.68,WSW,238,2.0,13.0,90,0.00,,,0.00,weatherlink.com 1.10,2013-06-01 08:27:00,
2013-06-01 03:42:00,65.9,63.0,29.67,WSW,240,5.0,12.0,89,0.00,,,0.00,weatherlink.com 1.10,2013-06-01 08:42:00,
2013-06-01 03:57:00,65.4,63.0,29.67,West,277,4.0,8.0,90,0.00,,,0.00,weatherlink.com 1.10,2013-06-01 08:57:00,
2013-06-01 04:12:00,64.9,62.0,29.67,South,182,5.0,7.0,91,0.00,,,0.00,weatherlink.com 1.10,2013-06-01 09:12:00,
2013-06-01 04:27:00,64.4,62.0,29.69,SSW,203,6.0,9.0,91,0.00,,,0.00,weatherlink.com 1.10,2013-06-01 09:27:00,
2013-06-01 04:42:00,64.1,62.0,29.69,WSW,240,4.0,8.0,92,0.00,,,0.00,weatherlink.com 1.10,2013-06-01 09:42:00,
2013-06-01 04:57:00,63.7,62.0,29.69,SW,217,1.0,7.0,93,0.00,,,0.00,weatherlink.com 1.10,2013-06-01 09:57:00,
2013-06-01 05:12:00,63.5,62.0,29.69,SSE,162,3.0,9.0,93,0.00,,,0.00,weatherlink.com 1.10,2013-06-01 10:12:00,
2013-06-01 05:27:00,63.4,61.0,29.69,WSW,246,3.0,7.0,93,0.00,,,0.00,weatherlink.com 1.10,2013-06-01 10:27:00,
2013-06-01 05:42:00,63.3,61.0,29.68,SW,219,2.0,11.0,93,0.00,,,0.00,weatherlink.com 1.10,2013-06-01 10:42:00,
2013-06-01 05:57:00,63.4,61.0,29.68,SW,236,3.0,9.0,93,0.00,,,0.00,weatherlink.com 1.10,2013-06-01 10:57:00,
2013-06-01 06:12:00,63.8,62.0,29.68,WSW,239,1.0,7.0,93,0.00,,,0.00,weatherlink.com 1.10,2013-06-01 11:12:00,
2013-06-01 06:28:00,64.0,62.0,29.69,WSW,246,0.0,7.0,92,0.00,,,0.00,weatherlink.com 1.10,2013-06-01 11:28:00,
2013-06-01 06:43:00,64.0,62.0,29.70,SSW,194,3.0,8.0,92,0.00,,,0.00,weatherlink.com 1.10,2013-06-01 11:43:00,
2013-06-01 06:58:00,64.1,62.0,29.70,SSW,197,3.0,10.0,92,0.00,,,0.00,weatherlink.com 1.10,2013-06-01 11:58:00,
2013-06-01 07:13:00,64.3,62.0,29.71,SSW,200,7.0,13.0,92,0.00,,,0.00,weatherlink.com 1.10,2013-06-01 12:13:00,
2013-06-01 07:28:00,64.3,62.0,29.71,SSW,209,6.0,12.0,92,0.00,,,0.00,weatherlink.com 1.10,2013-06-01 12:28:00,
2013-06-01 07:43:00,64.5,62.0,29.71,South,190,7.0,10.0,92,0.00,,,0.00,weatherlink.com 1.10,2013-06-01 12:43:00,
2013-06-01 07:58:00,64.8,63.0,29.70,SSW,198,6.0,9.0,92,0.00,,,0.00,weatherlink.com 1.10,2013-06-01 12:58:00,
2013-06-01 08:13:00,65.0,63.0,29.71,SSW,208,2.0,14.0,92,0.00,,,0.00,weatherlink.com 1.10,2013-06-01 13:13:00,
2013-06-01 08:28:00,65.3,63.0,29.71,WSW,252,3.0,15.0,92,0.00,,,0.00,weatherlink.com 1.10,2013-06-01 13:28:00,
2013-06-01 08:43:00,65.7,63.0,29.71,West,261,4.0,11.0,91,0.00,,,0.00,weatherlink.com 1.10,2013-06-01 13:43:00,
2013-06-01 08:58:00,66.1,64.0,29.73,WSW,252,3.0,13.0,91,0.00,,,0.00,weatherlink.com 1.10,2013-06-01 13:58:00,
2013-06-01 09:13:00,66.6,64.0,29.72,SSW,209,5.0,13.0,90,0.00,,,0.00,weatherlink.com 1.10,2013-06-01 14:13:00,
2013-06-01 09:28:00,66.7,63.0,29.73,SW,227,6.0,14.0,89,0.00,,,0.00,weatherlink.com 1.10,2013-06-01 14:28:00,
2013-06-01 09:44:00,66.9,64.0,29.71,SW,220,5.0,10.0,89,0.00,,,0.00,weatherlink.com 1.10,2013-06-01 14:44:00,
2013-06-01 09:59:00,67.1,64.0,29.71,WSW,242,10.0,11.0,89,0.00,,,0.00,weatherlink.com 1.10,2013-06-01 14:59:00,
2013-06-01 10:14:00,67.1,64.0,29.71,SW,217,10.0,13.0,88,0.00,,,0.00,weatherlink.com 1.10,2013-06-01 15:14:00,
2013-06-01 10:29:00,67.3,64.0,29.72,SW,226,8.0,10.0,89,0.00,,,0.00,weatherlink.com 1.10,2013-06-01 15:29:00,
2013-06-01 10:44:00,68.0,64.0,29.71,WSW,255,1.0,11.0,88,0.00,,,0.00,weatherlink.com 1.10,2013-06-01 15:44:00,
2013-06-01 10:59:00,68.7,65.0,29.71,West,259,0.0,11.0,87,0.00,,,0.00,weatherlink.com 1.10,2013-06-01 15:59:00,
2013-06-01 11:14:00,69.5,65.0,29.70,SSW,196,5.0,12.0,85,0.00,,,0.00,weatherlink.com 1.10,2013-06-01 16:14:00,
2013-06-01 11:29:00,70.2,66.0,29.70,SW,225,9.0,9.0,86,0.00,,,0.00,weatherlink.com 1.10,2013-06-01 16:29:00,
2013-06-01 11:44:00,70.6,66.0,29.69,West,268,3.0,12.0,84,0.00,,,0.00,weatherlink.com 1.10,2013-06-01 16:44:00,
2013-06-01 11:59:00,71.5,66.0,29.69,SW,225,3.0,12.0,82,0.00,,,0.00,weatherlink.com 1.10,2013-06-01 16:59:00,
2013-06-01 12:14:00,71.6,66.0,29.70,SSW,207,3.0,10.0,82,0.00,,,0.00,weatherlink.com 1.10,2013-06-01 17:14:00,
2013-06-01 12:29:00,72.0,66.0,29.70,SSW,213,5.0,11.0,81,0.00,,,0.00,weatherlink.com 1.10,2013-06-01 17:29:00,
2013-06-01 12:44:00,72.9,66.0,29.70,West,263,2.0,11.0,80,0.00,,,0.00,weatherlink.com 1.10,2013-06-01 17:44:00,
2013-06-01 12:59:00,74.0,67.0,29.69,SSW,211,3.0,10.0,78,0.00,,,0.00,weatherlink.com 1.10,2013-06-01 17:59:00,
2013-06-01 13:15:00,74.0,66.0,29.69,WSW,242,4.0,16.0,77,0.00,,,0.00,weatherlink.com 1.10,2013-06-01 18:15:00,
2013-06-01 13:30:00,74.4,67.0,29.68,SW,227,3.0,13.0,77,0.00,,,0.00,weatherlink.com 1.10,2013-06-01 18:30:00,
2013-06-01 13:45:00,72.7,66.0,29.69,WNW,289,7.0,10.0,80,0.00,,,0.00,weatherlink.com 1.10,2013-06-01 18:45:00,
2013-06-01 14:00:00,73.5,67.0,29.67,SW,223,2.0,7.0,81,0.00,,,0.00,weatherlink.com 1.10,2013-06-01 19:00:00,
2013-06-01 14:15:00,75.7,66.0,29.68,West,275,8.0,10.0,73,0.00,,,0.00,weatherlink.com 1.10,2013-06-01 19:15:00,
2013-06-01 14:30:00,74.8,67.0,29.67,SW,215,1.0,9.0,76,0.00,,,0.00,weatherlink.com 1.10,2013-06-01 19:30:00,
2013-06-01 14:45:00,75.3,67.0,29.67,West,277,9.0,13.0,76,0.00,,,0.00,weatherlink.com 1.10,2013-06-01 19:45:00,
2013-06-01 15:00:00,74.0,66.0,29.68,SSW,211,6.0,14.0,77,0.00,,,0.00,weatherlink.com 1.10,2013-06-01 20:00:00,
2013-06-01 15:15:00,75.9,67.0,29.67,WNW,285,6.0,16.0,73,0.00,,,0.00,weatherlink.com 1.10,2013-06-01 20:15:00,
2013-06-01 15:30:00,75.7,65.0,29.66,West,271,8.0,13.0,70,0.00,,,0.00,weatherlink.com 1.10,2013-06-01 20:30:00,
2013-06-01 15:45:00,75.6,65.0,29.66,WSW,248,8.0,15.0,69,0.00,,,0.00,weatherlink.com 1.10,2013-06-01 20:45:00,
2013-06-01 16:00:00,75.8,64.0,29.67,WNW,292,6.0,12.0,68,0.00,,,0.00,weatherlink.com 1.10,2013-06-01 21:00:00,
2013-06-01 16:15:00,76.6,61.0,29.67,West,273,11.0,15.0,58,0.00,,,0.00,weatherlink.com 1.10,2013-06-01 21:15:00,
2013-06-01 16:31:00,76.6,59.0,29.67,WNW,285,9.0,17.0,55,0.00,,,0.00,weatherlink.com 1.10,2013-06-01 21:31:00,
2013-06-01 16:46:00,75.6,60.0,29.67,SW,236,7.0,17.0,59,0.00,,,0.00,weatherlink.com 1.10,2013-06-01 21:46:00,
2013-06-01 17:01:00,76.5,60.0,29.67,WNW,290,8.0,17.0,57,0.00,,,0.00,weatherlink.com 1.10,2013-06-01 22:01:00,
2013-06-01 17:16:00,75.7,60.0,29.67,WNW,296,8.0,16.0,59,0.00,,,0.00,weatherlink.com 1.10,2013-06-01 22:16:00,
2013-06-01 17:31:00,74.8,60.0,29.68,WNW,285,5.0,13.0,60,0.00,,,0.00,weatherlink.com 1.10,2013-06-01 22:31:00,
2013-06-01 17:46:00,73.8,59.0,29.69,North,9,8.0,17.0,60,0.00,,,0.00,weatherlink.com 1.10,2013-06-01 22:46:00,
2013-06-01 18:01:00,73.4,59.0,29.69,WNW,282,11.0,12.0,62,0.00,,,0.00,weatherlink.com 1.10,2013-06-01 23:01:00,
2013-06-01 18:16:00,72.9,59.0,29.69,WNW,287,8.0,14.0,62,0.00,,,0.00,weatherlink.com 1.10,2013-06-01 23:16:00,
2013-06-01 18:31:00,72.0,59.0,29.69,West,275,3.0,12.0,63,0.00,,,0.00,weatherlink.com 1.10,2013-06-01 23:31:00,
2013-06-01 18:46:00,71.0,59.0,29.70,West,260,7.0,10.0,67,0.00,,,0.00,weatherlink.com 1.10,2013-06-01 23:46:00,
2013-06-01 19:01:00,70.2,59.0,29.70,NNW,338,7.0,11.0,67,0.00,,,0.00,weatherlink.com 1.10,2013-06-02 00:01:00,
2013-06-01 19:16:00,69.3,59.0,29.71,NNW,344,7.0,13.0,70,0.00,,,0.00,weatherlink.com 1.10,2013-06-02 00:16:00,
2013-06-01 19:31:00,68.4,59.0,29.71,West,275,6.0,13.0,72,0.00,,,0.00,weatherlink.com 1.10,2013-06-02 00:31:00,
2013-06-01 19:46:00,67.7,58.0,29.71,NW,312,10.0,11.0,72,0.00,,,0.00,weatherlink.com 1.10,2013-06-02 00:46:00,
2013-06-01 20:02:00,67.2,59.0,29.72,NW,305,5.0,11.0,74,0.00,,,0.00,weatherlink.com 1.10,2013-06-02 01:02:00,
2013-06-01 20:17:00,66.8,59.0,29.73,NNW,333,3.0,13.0,75,0.00,,,0.00,weatherlink.com 1.10,2013-06-02 01:17:00,
2013-06-01 20:32:00,66.4,59.0,29.73,WNW,300,5.0,11.0,76,0.00,,,0.00,weatherlink.com 1.10,2013-06-02 01:32:00,
2013-06-01 20:47:00,65.7,59.0,29.74,NW,315,2.0,9.0,78,0.00,,,0.00,weatherlink.com 1.10,2013-06-02 01:47:00,
2013-06-01 21:02:00,65.0,58.0,29.74,NW,309,6.0,7.0,79,0.00,,,0.00,weatherlink.com 1.10,2013-06-02 02:02:00,
2013-06-01 21:18:00,64.3,58.0,29.75,WNW,300,1.0,6.0,81,0.00,,,0.00,weatherlink.com 1.10,2013-06-02 02:18:00,
2013-06-01 21:32:00,63.9,58.0,29.75,WNW,285,3.0,5.0,82,0.00,,,0.00,weatherlink.com 1.10,2013-06-02 02:32:00,
2013-06-01 21:47:00,63.5,58.0,29.76,WNW,286,5.0,8.0,83,0.00,,,0.00,weatherlink.com 1.10,2013-06-02 02:47:00,
2013-06-01 22:02:00,63.5,58.0,29.76,NW,304,4.0,8.0,83,0.00,,,0.00,weatherlink.com 1.10,2013-06-02 03:02:00,
2013-06-01 22:17:00,63.5,58.0,29.77,West,267,7.0,8.0,83,0.00,,,0.00,weatherlink.com 1.10,2013-06-02 03:17:00,
2013-06-01 22:32:00,63.5,58.0,29.77,WNW,297,2.0,10.0,83,0.00,,,0.00,weatherlink.com 1.10,2013-06-02 03:32:00,
2013-06-01 22:47:00,63.8,59.0,29.77,WNW,287,4.0,8.0,83,0.00,,,0.00,weatherlink.com 1.10,2013-06-02 03:47:00,
2013-06-01 23:02:00,63.6,59.0,29.77,West,274,8.0,12.0,84,0.00,,,0.00,weatherlink.com 1.10,2013-06-02 04:02:00,
2013-06-01 23:17:00,63.4,59.0,29.77,West,271,4.0,9.0,84,0.00,,,0.00,weatherlink.com 1.10,2013-06-02 04:17:00,
2013-06-01 23:33:00,63.2,59.0,29.78,WNW,288,4.0,12.0,85,0.00,,,0.00,weatherlink.com 1.10,2013-06-02 04:33:00,
2013-06-01 23:48:00,63.1,59.0,29.78,WNW,284,2.0,10.0,85,0.00,,,0.00,weatherlink.com 1.10,2013-06-02 04:48:00,